RH
18 20 17 14 13 12 11 11 10 10 11 13 14 13 11 10 10 10 9 8 7 8 8 8 8 8 8 8 8 8 9 9 9 9 9 10 10 10 10 11 11 11
16 18 18 16 13 12 11 10 10 8 8 9 10 9 8 7 7 7 7 7 7 7 7 7 7 8 8 8 8 8 8 8 8 9 9 9 9 9 10 10 10 10
14 16 18 18 15 13 12 10 10 9 8 8 8 7 6 6 6 6 6 6 7 7 7 7 7 7 8 8 8 8 8 8 8 8 8 8 8 8 8 8 9 9
12 13 16 19 18 15 12 11 10 9 9 8 8 7 6 6 6 6 6 5 6 6 6 6 6 6 6 6 7 7 7 8 8 7 7 8 10 10 10 9 9 8
10 12 13 16 18 18 16 14 12 9 9 8 8 8 7 6 6 5 5 5 5 5 5 5 5 5 5 5 6 6 6 7 6 7 10 14 17 17 16 15 13 11
10 10 11 13 15 18 19 18 15 12 10 9 8 8 8 8 7 5 5 5 4 4 4 4 4 4 4 5 5 6 6 6 7 11 16 19 20 20 19 17 15 13
11 10 10 11 12 16 19 19 17 15 13 11 9 9 9 9 8 7 6 5 4 4 4 3 3 3 4 4 5 6 7 7 11 16 20 20 19 19 18 17 16 14
12 11 9 10 10 13 16 18 18 16 15 14 12 11 10 9 9 8 7 6 5 4 4 3 3 3 3 4 5 6 8 10 14 19 20 18 18 18 18 18 17 16
12 12 9 9 9 10 13 15 17 17 15 14 14 12 10 9 9 8 7 7 6 5 5 3 3 3 3 4 5 7 10 13 15 18 19 18 18 18 18 19 19 19
12 13 10 8 8 9 10 12 15 16 15 15 14 12 11 10 9 8 8 7 6 6 6 4 4 4 3 4 5 7 12 15 16 17 18 18 18 19 19 19 20 20
12 13 12 9 8 8 9 10 12 13 14 15 14 13 12 10 9 8 8 7 7 7 6 5 4 4 4 4 4 8 13 17 17 17 17 17 18 20 20 21 21 22
10 12 12 11 9 8 8 8 9 11 12 14 15 14 13 11 10 9 8 7 8 7 7 5 4 4 4 4 5 7 13 18 19 18 17 17 19 20 21 21 22 23
8 11 12 12 11 8 8 8 8 9 10 12 13 14 14 13 11 10 9 9 8 8 8 6 5 4 4 4 5 7 12 17 19 19 18 18 19 20 21 22 23 24
7 8 9 11 11 9 8 8 8 8 8 10 11 12 13 13 12 11 10 9 9 9 9 8 6 6 5 4 4 5 10 16 19 20 19 19 20 21 22 23 23 25
9 8 7 8 9 10 9 8 8 8 8 8 9 10 11 11 11 11 9 9 9 9 10 9 9 9 7 6 5 4 7 12 17 20 19 19 20 21 23 24 25 26
9 9 7 6 6 7 8 8 8 8 8 8 8 8 9 10 10 10 9 9 9 9 10 10 10 10 9 8 6 5 5 8 14 19 20 20 20 21 23 25 27 27
6 8 8 6 5 5 5 6 7 7 7 8 8 8 8 8 9 9 8 8 9 9 9 10 10 10 10 9 7 6 5 5 9 15 19 20 20 21 24 26 27 28
8 7 8 7 7 6 5 4 5 6 7 7 7 8 7 7 8 8 8 8 8 8 9 9 9 9 9 9 8 7 6 5 5 9 15 20 20 20 22 25 26 27
19 7 6 8 8 7 6 5 4 4 5 6 7 8 7 7 7 7 7 7 7 7 8 8 8 8 8 8 8 7 6 5 4 5 9 15 19 20 21 23 25 26
40 20 8 4 7 8 7 5 5 4 4 5 6 7 7 7 7 7 7 7 7 7 7 7 7 7 7 7 7 7 6 5 5 4 5 9 15 19 20 21 23 24
59 43 25 10 7 9 9 8 7 5 4 4 5 6 7 7 7 7 7 6 6 6 6 6 6 7 7 7 7 6 6 5 5 4 4 5 9 14 18 20 21 22
70 63 49 34 24 17 11 8 9 8 7 6 4 5 6 7 7 8 7 7 7 6 6 6 6 6 6 6 6 6 6 5 5 4 4 4 5 9 13 16 19 20
78 76 68 58 47 32 15 6 7 9 9 9 8 6 5 5 6 7 7 7 7 6 6 6 6 6 6 6 6 6 6 5 5 4 4 4 4 5 8 11 14 17
78 81 83 75 63 50 35 21 14 11 9 8 9 9 7 6 6 6 6 7 7 7 7 7 7 7 7 7 7 6 6 6 6 5 4 4 4 4 4 7 10 13
75 79 87 87 78 66 55 44 34 25 17 10 8 9 9 9 7 6 6 6 6 6 7 7 8 8 8 7 7 7 7 6 6 6 5 5 6 5 4 5 6 9
72 76 79 85 86 76 67 62 56 47 35 19 10 8 8 9 10 9 8 7 6 6 6 6 7 8 9 8 8 8 8 7 7 7 7 6 7 6 6 6 5 6
Wind_Speed
18 19 19 19 18 17 16 15 15 14 14 13 13 13 14 14 13 13 13 13 13 13 12 12 11 11 11 11 11 11 10 10 10 10 10 9 9 8 8 7 7 6
19 19 19 19 19 18 17 16 15 14 13 12 12 13 13 14 13 13 13 13 13 13 13 12 12 11 11 12 11 11 11 11 11 10 10 9 8 8 8 7 7 8
20 20 19 20 20 20 19 18 16 15 14 13 13 13 13 14 13 13 13 13 13 13 13 13 13 12 12 12 12 12 12 11 11 11 10 9 8 8 8 8 8 8
21 21 21 21 21 21 20 19 17 16 15 15 15 14 14 14 14 14 14 14 14 14 14 13 13 13 13 13 12 12 12 12 11 11 11 10 9 9 8 7 7 7
23 23 22 22 22 21 21 20 19 18 17 16 16 15 14 14 14 14 14 15 14 14 14 14 14 14 13 13 13 12 12 12 11 11 11 11 10 9 8 7 7 7
24 24 24 23 22 22 21 21 21 20 19 18 17 16 15 15 14 15 15 15 16 15 15 15 14 14 14 14 14 13 13 12 12 12 12 11 10 9 8 7 7 7
26 26 26 25 24 23 23 22 22 21 20 20 19 18 17 16 15 15 16 16 17 17 16 15 15 14 15 15 14 14 13 13 13 12 11 10 9 8 7 6 6 6
28 28 28 27 25 24 24 23 22 22 22 21 20 19 19 18 17 16 16 17 17 18 17 16 15 15 15 16 15 15 14 13 13 13 12 10 9 8 7 6 5 5
29 29 29 28 26 26 25 25 24 24 23 22 22 21 20 19 18 17 17 17 18 18 18 17 16 15 15 16 16 16 15 14 14 14 12 11 10 9 8 7 6 5
31 30 30 29 28 27 27 27 27 26 25 24 23 23 22 21 20 18 18 18 18 19 19 18 17 16 16 16 17 17 16 15 15 14 13 12 11 10 9 8 8 7
33 32 31 30 30 29 29 30 29 28 27 26 25 24 23 22 21 20 19 19 20 20 20 20 19 17 16 16 17 18 17 16 16 15 14 13 13 12 11 10 9 9
37 35 33 32 32 32 32 32 31 30 29 27 26 25 24 23 22 21 20 20 21 22 22 21 20 19 17 17 18 18 18 17 17 16 16 15 15 14 13 12 11 11
39 38 36 35 35 34 34 33 33 32 30 29 28 27 27 25 23 22 22 22 23 23 23 23 22 20 19 18 18 19 19 19 18 18 17 17 16 16 15 14 13 12
41 41 40 39 38 37 35 34 33 32 32 32 31 30 28 27 26 25 25 25 25 25 25 24 23 21 20 19 19 20 21 21 20 20 19 18 18 17 16 16 15 14
42 42 42 42 41 39 37 35 34 34 33 33 33 31 31 30 29 28 27 27 26 26 26 26 25 23 22 21 20 21 22 22 22 22 21 20 20 19 18 17 17 16
41 42 43 43 42 41 40 38 36 36 35 34 34 33 33 32 31 30 29 28 27 28 27 27 26 24 24 23 22 22 23 24 24 24 24 23 22 21 20 19 19 18
37 41 43 43 43 42 41 40 39 38 37 36 35 35 34 34 33 31 30 30 29 29 28 27 26 26 25 25 24 23 24 25 26 26 26 25 24 23 22 22 21 20
34 38 41 42 42 43 42 42 41 40 39 38 37 36 36 35 34 33 32 31 31 30 29 28 27 27 27 26 25 25 25 25 27 28 28 28 27 26 25 24 23 22
32 34 37 40 41 42 43 43 43 42 41 40 39 38 37 36 35 35 34 33 32 31 30 30 29 29 29 28 27 27 26 26 27 28 29 30 30 29 27 26 25 24
33 32 33 36 39 41 42 43 43 43 42 42 41 40 39 37 37 36 35 35 34 33 32 31 31 31 30 30 29 28 28 28 28 29 30 31 31 31 30 29 28 26
35 32 32 33 36 38 40 41 42 42 42 42 42 41 40 39 38 38 37 36 35 34 33 32 31 31 31 30 30 30 30 29 28 28 29 30 32 33 33 32 31 29
37 35 33 33 34 35 36 38 40 41 42 43 43 43 42 41 41 40 39 38 37 35 34 32 32 32 32 31 30 31 31 30 29 28 28 29 31 32 33 34 33 32
39 38 36 35 35 34 35 37 39 40 42 43 43 44 43 43 43 42 41 40 39 37 35 33 32 33 33 32 31 32 32 31 29 28 28 28 29 31 32 34 34 33
41 40 39 39 38 37 37 37 39 40 41 42 43 44 44 44 45 44 43 42 41 38 36 34 33 33 33 32 32 32 32 31 29 28 28 27 28 29 30 32 33 34
44 43 43 43 42 41 41 40 39 39 40 41 43 44 44 45 45 45 44 43 42 40 38 36 35 34 34 33 33 33 33 31 30 29 28 27 27 28 29 30 31 33
46 46 46 47 47 46 45 44 42 41 40 40 42 43 44 45 45 45 44 43 42 41 40 39 37 36 36 36 35 35 34 33 32 30 28 28 28 29 29 29 29 31
Wind_Direction
188 190 187 182 178 176 179 183 185 186 186 186 187 188 186 185 187 183 178 176 175 175 176 177 176 176 175 176 178 177 176 175 176 178 181 183 182 180 177 176 175 176
192 194 192 189 185 183 185 189 190 189 188 189 195 200 198 195 194 192 189 187 185 184 184 184 185 186 186 186 186 185 185 184 184 184 186 190 190 188 187 187 188 186
196 198 196 194 193 192 192 194 195 193 191 191 197 204 206 204 202 200 200 198 195 194 193 193 194 195 195 195 194 194 192 191 191 189 188 192 195 193 191 192 194 194
198 202 201 198 197 197 197 199 200 198 196 197 201 205 208 210 209 208 209 209 206 204 202 201 201 201 202 202 201 200 199 196 196 192 188 187 189 188 188 190 193 196
200 204 205 201 199 198 199 203 205 204 203 204 206 208 210 213 214 214 215 216 214 211 207 207 207 206 206 206 206 205 203 200 197 192 185 181 180 180 180 182 188 193
202 205 207 204 200 198 199 202 206 207 208 209 211 212 213 214 217 217 217 218 217 214 210 208 209 209 208 207 207 206 204 201 196 191 185 181 178 176 175 176 180 188
204 206 208 206 202 200 200 202 204 207 209 211 213 216 216 216 218 220 220 219 218 215 212 210 210 210 209 208 207 206 204 202 196 192 189 187 183 179 177 178 177 181
208 208 210 208 204 201 202 203 204 206 208 209 212 216 218 218 219 220 220 221 219 217 215 214 214 212 211 209 208 206 205 203 199 197 195 195 193 190 187 187 185 181
211 211 212 211 208 205 204 205 206 207 207 207 209 213 215 217 219 218 218 219 220 218 217 217 217 216 214 211 208 208 207 205 203 202 202 202 202 203 201 198 197 193
212 213 214 214 212 210 208 208 208 208 207 206 208 210 212 214 215 215 214 215 217 218 218 218 220 220 218 214 210 210 209 209 208 206 207 207 209 212 213 210 208 206
214 214 214 215 215 214 212 212 211 210 208 208 208 209 211 212 213 212 211 210 213 215 216 217 219 222 222 218 214 212 212 213 213 212 212 212 215 217 219 220 220 218
215 215 214 215 217 217 216 215 214 213 211 210 210 210 212 213 212 212 210 209 211 214 216 217 218 221 223 222 218 216 216 216 217 218 218 218 220 222 223 225 226 226
217 216 215 216 217 219 219 218 217 216 215 214 213 212 213 213 213 212 211 210 211 213 216 218 218 219 223 224 223 221 220 220 221 221 222 224 226 227 228 229 230 230
220 219 218 217 218 220 222 222 221 220 219 218 217 215 214 214 214 214 212 211 211 212 215 218 218 219 222 225 226 226 225 225 225 225 225 226 229 231 232 233 234 235
222 222 221 220 220 220 222 224 224 224 223 222 221 219 217 217 216 216 215 214 213 213 215 217 217 218 222 225 227 229 229 229 229 229 228 228 230 232 234 235 236 237
226 225 225 224 223 222 222 223 225 226 226 225 225 223 222 221 220 219 218 217 217 217 217 218 218 219 222 225 227 229 231 232 232 232 231 230 230 232 234 236 237 238
229 228 228 228 227 226 225 224 224 226 227 228 227 227 226 225 224 223 222 221 221 221 220 219 220 222 224 226 228 229 231 232 233 233 233 232 232 232 233 235 237 238
230 230 230 230 229 229 228 227 225 225 226 228 229 229 228 228 227 226 226 225 224 223 223 222 222 224 226 227 228 230 230 231 232 233 233 233 232 232 232 234 236 238
232 232 232 232 232 231 231 230 229 226 226 227 229 230 230 230 228 228 227 228 227 226 225 225 224 226 228 228 229 230 231 231 231 232 233 232 232 231 232 233 236 238
236 234 234 234 235 235 236 235 234 232 229 228 228 230 231 232 231 230 229 229 228 227 227 226 227 228 229 230 231 232 232 232 232 231 232 232 232 232 232 232 234 236
239 238 236 235 235 236 238 240 241 240 237 234 232 231 231 232 233 233 233 232 231 229 229 228 229 231 232 233 233 234 235 235 234 234 234 234 233 232 232 232 233 234
239 239 238 236 236 235 236 238 241 243 243 240 238 236 234 233 233 234 234 235 234 233 232 231 231 233 235 235 236 237 239 239 238 237 237 237 237 235 234 233 233 233
240 240 240 240 239 237 235 234 236 238 241 242 241 240 239 237 236 235 235 235 235 235 234 233 233 235 237 237 237 238 241 242 241 240 239 240 240 239 238 237 235 235
240 241 241 241 241 240 237 236 235 235 237 239 241 241 241 240 239 238 237 237 237 238 237 235 235 236 238 239 239 240 241 243 243 243 242 242 242 243 243 241 239 238
239 239 239 240 240 240 238 236 235 235 236 237 239 240 241 241 241 241 240 240 240 240 240 238 237 238 240 240 240 241 242 243 243 244 244 243 244 244 244 244 243 241
238 238 238 238 238 238 237 235 234 234 236 237 238 239 240 241 241 241 242 242 241 241 241 241 239 239 240 241 241 242 243 243 243 244 244 244 244 244 245 245 244 244